STARLINK-32786, 62528

Orbit data source: Space-Track

STARLINK-32786, 62528 is a payload satellite owned by SpaceX/Seattle (US) in LEO that was launched on Wed, 08 Jan 2025 UTC via an FALCON 9 launch vehicle from the Air Force Eastern Test Range (AFETR). Payload-class satellites include a variety of spacecraft equipped with specific instruments for various scientific and technological missions. These include communications satellites like Starlink; space stations such as the ISS; scientific satellites like the Hubble; Earth observation satellites from companies like Planet Labs, Umbra, and HawkEye 360; GPS; miniature CubeSats for education and research; and military/defense satellites.

Loading next visibility...
Identifier
62528, 2025-004T
Orbit
LEO
Country
Flag of USUS
Related business
Manufacturer
SpaceX/Seattle
Mission
Operational Commercial Communications
Bus & Motor
STARLINK V2M, Unknown motor
Mass
730 kg wet, ~700 kg dry
Launch date (UTC)
2025-01-08 (10 months ago)
Launch vehicle
FALCON 9
Launch site
Air Force Eastern Test Range (AFETR)
Object type
Payload
Rocket body
Debris
Shape & HBR
Box + 2 Pan, 17.7 m
Radar Cross Section
33.884 m², Large (>1 m²)

Expand to show TLE details & history
Last TLE update: 16 hours ago

TLE from 16 hours ago
0 STARLINK-32786
1 62528U 25004T   25308.99917122  .00036353  00000-0  13235-2 0  9998
2 62528  42.9990 203.6387 0001307 273.7631  86.3071 15.27595269 46441
Epoch: 2025-11-04T23:58Z
TLE epoch observation values (Epoch: 2025-11-04T23:58:48.393Z)
Latitude
-0.00003°
Longitude
159.45889°
Altitude
482.721 km
Speed
7.626 km/s
True Right ascension
13h 34m 33s
True Declination
0° 00' 00"
Sunlit
Object was in daylight at epoch
Visualization orbit readout
Latitude
Unknown
Longitude
Unknown
Altitude
Unknown
Speed
Unknown
Apparent Right ascension
Unknown
Apparent Declination
Unknown
Sunlit
N/A
Visualization observer readout
Local Sidereal Time
11:46:28
Azimuth
Unknown
Elevation
Unknown
Doppler factor
Unknown
Orbital elements
Apogee altitude
485.846 km
Perigee altitude
484.052 km
Semi-major axis
6,863.086 km
Eccentricity
0.00013
Inclination
42.999°
RAAN
203.6387°
Arg. of periapsis
273.7631°
True anomaly
86.32205°
Mean anomaly
86.3071°
Eccentric anomaly
86.31457°
Mean motion
3.81737 °/min
Orbital period
94.31 mins
BSTAR
0.0013235
Loading maneuver chart data...
Computing Atmospheric mass density...
Loading historical data...
Loading historical data...
Loading historical data...
Loading historical data...
Loading historical data...
Loading historical data...
Loading historical data...

Documentation

Showing up to 5 results
|